Location: Austin
(30.3000°N, 97.7500°W)
Time: 07:33:15
(UTC-05:00)

CZ-2C R/B - Pass Details

Date: 16 June 2025
Orbit: 783 x 866 km, 98.4° (Epoch: 08 July)

Event Time Altitude Azimuth Distance (km) Brightness Sun altitude
Exits shadow 03:22:12 27° 313° (NW) 1,501 4.1 -30.2°
Drops below altitude 10° 03:24:49 10° 332° (NNW) 2,382 5.4 -29.9°
Sets 03:27:18 0° 339° (NNW) 3,328 6.3 -29.6°
